星链-2421 (STARLINK-2421 )
导读
STARLINK-2421是美国SpaceX星链(Starlink)项目的卫星,于2021年4月7日发射,属于星链星座中占比最高的V1.5版本卫星。它重约295公斤,采用紧凑型平板设计,单颗配备激光星间链路模块,支持卫星间直接通信,可降低对地面基站依赖,为全球用户提供高速宽带互联网服务,助力星链拓展偏远地区、海洋等区域的网络覆盖,提升星座整体通信性能。
Basic Information
目录编号:
48098
目录名称:
STARLINK-2421
国际标识:
2021-027G
轨道中心:
EARTH
卫星名称:
星链-2421
卫星全名:
星链-2421 (STARLINK-2421 )
卫星状态:
在轨 (已飞行1977 天)
发射日期:
2021-04-07 UTC
国别 :
美国
(US)
星等 :
--
Orbit Information
| 数据来源 | 国际轨道数据 | AOE轨道数据 |
| 星历时间 | 2026-09-04T20:26:43+0800 1天前 查看轨道信息 | 2026-09-03T02:00:00+0800 2天前 查看轨道信息 |
| 半长轴 | 6817.369km | 6817.854km |
| 偏心率 | 0.0000662 | 0.0002072 |
| 轨道倾角 | 53.161° | 53.161° |
| 近地点辐角 | 41.512° | 118.228° |
| 升交点赤经 | 41.413° | 49.782° |
| 平近点角 | 318.594° | 137.191° |
| 近地点 | 438.78km | 438.304km |
| 远地点 | 439.684km | 441.13km |
| 周期 | 93.365分钟 | 93.375分钟 |
| 每日圈数 | 15.423312 | 15.421666 |
Detailed Information
固有亮度:
5
最大亮度:
2.5
卫星平台:
Starlink V1.0
覆盖范围:
全球
运营商:
太空探索技术公司
运营商所在国:
美国
制造商(研发单位):
太空探索技术公司
制造商所在国:
美国
使用方式:
暂无
Satellite Introduction
星链(Starlink)计划是由太空探索技术公司(SpaceX)提出的一个巨型低轨卫星互联网星座项目,计划在2019年至2024年间在太空搭建由约1.2万颗卫星组成的“星链”网络,其中1584颗将部署在地球上空550千米处的近地轨道,并从2020年开始工作。该卫星仍在工作。
2D Orbit Map
3D Orbit Map
Orbit Altitude Analysis Chart
Orbit Inclination Analysis Chart
Orbit Comprehensive Analysis Chart
View Comprehensive ChartConjunction Data List
| Event ID | Objects | TCA | Miss Dist (km) | Collision Risk Probability | Collision Risk Index (CRI) | Action |
|---|---|---|---|---|---|---|
| CDM_260907-203204-809805-859221 |
STARLINK-2421
(48098)
STARLINK-31096
(58592) | 2026-09-07T 20:32:36+0000 |
2.657 km
极远距离 | 1.357927E-6 低风险 | 0.38 |

